Weather History for Gaylord, MI

Change the Weather History Date:

Saturday, March 1, 2014

  Actual Average Record
Temperature  
Mean Temperature 6 °F -  
Max Temperature 12 °F 33 °F 53 °F (1983)
Min Temperature 0 °F 13 °F -22 °F (1962)
Degree Days  
Heating Degree Days 58    
Moisture  
Dew Point 0 °F    
Average Humidity 72    
Maximum Humidity 88    
Minimum Humidity 46    
Precipitation  
Precipitation 0.00 in - - ()
Sea Level Pressure  
Sea Level Pressure 30.10 in    
Wind  
Wind Speed 8 mph (WNW)    
Max Wind Speed 13 mph    
Max Gust Speed 17 mph    
Visibility 6 miles    
Events Snow    
Averages and records for this station are not official NWS values.
T = Trace of Precipitation, MM = Missing Value Source: NWS Daily Summary

Daily Weather History Graph

Daily Weather History Graph

Search for Another Location

Airport:

Trip Planner

Search our weather history database for the weather conditions in past years. The results will help you decide how hot, cold, wet, or windy it might be!

Date:

Astronomy

Mar. 01, 2014 Rise Set
Actual Time 7:16 AM EST 6:26 PM EST
Civil Twilight 6:47 AM EST 6:55 PM EST
Nautical Twilight 6:13 AM EST 7:29 PM EST
Astronomical Twilight 5:39 AM EST 8:03 PM EST
Moon 7:07 AM EST 7:16 PM EST
Length of Visible Light 12h 08m
Length of Day
11h 09m
New Moon, 0% of the Moon is Illuminated
Mar 1
New Moon
Mar 8
First Quarter
Mar 16
Full
Mar 23
Last Quarter
Mar 30
New

Hourly Weather History & Observations

Time (EST) Temp. Windchill Dew Point Humidity Pressure Visibility Wind Dir Wind Speed Gust Speed Precip Events Conditions
12:51 AM 10.4 °F -3.3 °F 6.8 °F 85% 29.93 in 4.0 mi SSW 10.4 mph - 0.00 in Snow Light Snow
12:53 AM 10.9 °F -4.1 °F 6.1 °F 81% 30.02 in 4.0 mi SW 12.7 mph - 0.00 in Snow Light Snow
1:53 AM 12.9 °F -0.9 °F 9.0 °F 84% 30.01 in 2.0 mi SW 11.5 mph - 0.00 in Snow Light Snow
2:08 AM 12.9 °F -0.2 °F 9.0 °F 84% 29.92 in 4.0 mi SW 10.4 mph - 0.00 in Snow Light Snow
2:19 AM 12.9 °F 1.6 °F 9.0 °F 84% 29.92 in 1.8 mi SW 8.1 mph - 0.00 in Snow Light Snow
2:53 AM 12.9 °F -0.2 °F 10.0 °F 88% 30.01 in 1.5 mi WSW 10.4 mph - 0.00 in Snow Light Snow
3:23 AM 12.9 °F -0.9 °F 10.0 °F 88% 29.92 in 2.5 mi WSW 11.5 mph - 0.00 in Snow Light Snow
3:53 AM 12.9 °F 1.6 °F 10.0 °F 88% 30.00 in 4.0 mi West 8.1 mph - 0.00 in Snow Light Snow
4:03 AM 12.9 °F 0.7 °F 9.0 °F 84% 29.92 in 4.0 mi West 9.2 mph - 0.00 in Snow Light Snow
4:25 AM 12.0 °F 2.7 °F 8.1 °F 84% 29.93 in 1.8 mi NW 5.8 mph - 0.00 in Snow Light Snow
4:53 AM 10.0 °F -1.9 °F 6.1 °F 84% 30.03 in 2.0 mi NW 8.1 mph - 0.00 in Snow Light Snow
5:14 AM 9.0 °F -0.9 °F 5.0 °F 84% 29.95 in 3.0 mi NW 5.8 mph - 0.00 in Snow Light Snow
5:34 AM 8.1 °F -3.2 °F 3.9 °F 83% 29.96 in 2.0 mi Variable 6.9 mph - 0.00 in Snow Light Snow
5:45 AM 8.1 °F -4.3 °F 3.9 °F 83% 29.97 in 4.0 mi NW 8.1 mph - 0.00 in Snow Light Snow
5:53 AM 8.1 °F -4.3 °F 3.9 °F 83% 30.07 in 4.0 mi NW 8.1 mph - 0.00 in Snow Light Snow
6:02 AM 8.1 °F 1.4 °F 3.9 °F 83% 29.98 in 4.0 mi Variable 3.5 mph - 0.00 in Snow Light Snow
6:10 AM 8.1 °F -2.0 °F 3.9 °F 83% 29.98 in 5.0 mi NW 5.8 mph - 0.00 in Snow Light Snow
6:53 AM 7.0 °F -4.5 °F 1.9 °F 80% 30.09 in 10.0 mi NW 6.9 mph - 0.00 in   Mostly Cloudy
7:09 AM 7.0 °F -4.5 °F 1.0 °F 77% 30.01 in 10.0 mi WNW 6.9 mph - N/A   Mostly Cloudy
7:53 AM 6.1 °F -4.3 °F 1.0 °F 80% 30.12 in 10.0 mi WNW 5.8 mph - N/A   Scattered Clouds
8:53 AM 7.0 °F -3.3 °F 1.0 °F 77% 30.14 in 9.0 mi Variable 5.8 mph - N/A   Mostly Cloudy
9:29 AM 7.0 °F -4.5 °F -0.0 °F 73% 30.06 in 1.8 mi NW 6.9 mph 17.3 mph 0.00 in Snow Light Snow
9:38 AM 7.0 °F -5.7 °F -0.9 °F 70% 30.06 in 3.0 mi NW 8.1 mph 16.1 mph 0.00 in Snow Light Snow
9:50 AM 6.8 °F -2.0 °F -0.4 °F 72% 30.08 in 1.8 mi NW 4.6 mph 16.1 mph 0.00 in Snow Light Snow
9:53 AM 7.0 °F -4.5 °F 1.0 °F 77% 30.18 in 1.2 mi NW 6.9 mph - 0.00 in Snow Light Snow
10:35 AM 9.0 °F -2.2 °F 1.0 °F 70% 30.08 in 3.0 mi Variable 6.9 mph - 0.00 in Snow Light Snow
10:51 AM 8.6 °F -4.7 °F -0.4 °F 67% 30.09 in 2.5 mi WNW 9.2 mph - 0.00 in Snow Light Snow
10:53 AM 8.1 °F -2.0 °F -0.9 °F 67% 30.18 in 4.0 mi Variable 5.8 mph - 0.00 in Snow Light Snow
11:50 AM 8.6 °F -1.3 °F -4.0 °F 57% 30.09 in 10.0 mi Variable 5.8 mph - 0.00 in   Partly Cloudy
11:53 AM 9.0 °F -4.2 °F -4.0 °F 56% 30.19 in 10.0 mi WNW 9.2 mph - 0.00 in   Partly Cloudy
12:53 PM 10.0 °F -0.9 °F -7.1 °F 46% 30.18 in 10.0 mi Variable 6.9 mph - N/A   Clear
1:53 PM 10.0 °F -2.9 °F -5.1 °F 51% 30.19 in 10.0 mi WNW 9.2 mph - N/A   Clear
2:53 PM 9.0 °F -4.2 °F -4.0 °F 56% 30.21 in 10.0 mi West 9.2 mph 16.1 mph N/A   Mostly Cloudy
3:53 PM 7.0 °F -7.5 °F -4.0 °F 61% 30.22 in 10.0 mi WNW 10.4 mph - N/A   Overcast
4:53 PM 6.1 °F -5.6 °F -5.1 °F 60% 30.25 in 10.0 mi NW 6.9 mph - N/A   Overcast
5:53 PM 5.0 °F -6.9 °F -9.9 °F 50% 30.27 in 10.0 mi Variable 6.9 mph - N/A   Overcast
6:53 PM 3.9 °F -6.9 °F -9.0 °F 55% 30.31 in 10.0 mi Variable 5.8 mph - N/A   Overcast
7:53 PM 3.9 °F -3.4 °F -8.0 °F 58% 30.30 in 10.0 mi Variable 3.5 mph - N/A   Overcast
8:53 PM 3.0 °F -8.0 °F -9.9 °F 55% 30.31 in 10.0 mi Variable 5.8 mph - N/A   Mostly Cloudy
9:53 PM 1.9 °F -9.2 °F -9.9 °F 58% 30.34 in 10.0 mi Variable 5.8 mph - N/A   Overcast
10:53 PM 1.0 °F -6.7 °F -11.0 °F 57% 30.33 in 10.0 mi Variable 3.5 mph - N/A   Clear
11:53 PM -0.9 °F -8.9 °F -11.9 °F 60% 30.35 in 10.0 mi NNE 3.5 mph - N/A   Partly Cloudy